Location: Puketoi
(40.5833°S, 176.0167°E)
Time: 19:15:10
(UTC+00:00)

SL-4 R/B - Visible Passes

Search period start: 26 May 2024 00:00
Search period end: 05 June 2024 00:00
Orbit: 413 x 602 km, 51.6° (Epoch: 25 May)

Date Brightness Start Highest point End Pass type
(mag) Time Alt. Az. Time Alt. Az. Time Alt. Az.
26 May 3.7 05:58:25 10° SSW 06:00:14 14° S 06:01:30 12° SSE visible
27 May 3.7 05:39:22 10° SSW 05:41:13 14° S 05:43:03 10° SE visible
27 May 4.3 07:17:38 10° SW 07:18:07 13° SW 07:18:07 13° SW visible
28 May 3.5 06:58:33 10° SW 06:59:58 21° SSW 06:59:58 21° SSW visible
29 May 2.6 06:39:28 10° SW 06:41:56 32° S 06:41:56 32° S visible
30 May 2.1 06:20:21 10° SW 06:23:33 38° SSE 06:24:00 36° SE visible
31 May 2.0 06:01:14 10° SW 06:04:28 40° SSE 06:06:14 21° E visible
31 May 4.6 07:40:13 10° WSW 07:41:05 15° W 07:41:05 15° W visible
01 Jun 1.9 05:42:05 10° SW 05:45:21 42° SSE 05:48:35 10° ENE visible
01 Jun 3.9 07:21:10 10° W 07:23:34 22° NW 07:23:34 22° NW visible
02 Jun 1.8 05:22:55 10° SW 05:26:12 45° SSE 05:29:28 10° ENE visible
02 Jun 4.0 07:02:06 10° W 07:04:41 20° NW 07:06:24 14° N visible
03 Jun 4.2 06:43:02 10° W 06:45:30 19° NW 06:47:58 10° N visible
04 Jun 4.5 06:23:57 10° W 06:26:18 18° NW 06:28:38 10° N visible
